Location: Be?i?
(36.9044°N, 30.1006°E)
Time: 11:44:51
(UTC+00:00)

Cosmos 2369 Rocket - Pass Details

Date: 05 August 2024
Orbit: 826 x 853 km, 71.0° (Epoch: 08 September)

Event Time Altitude Azimuth Distance (km) Brightness Sun altitude
Rises 17:44:40 0° 198° (SSW) 3,351 5.2 -8.5°
Reaches altitude 10° 17:47:05 10° 197° (SSW) 2,424 4.5 -9.0°
Maximum altitude 17:52:38 83° 110° (ESE) 842 2.1 -9.9°
Drops below altitude 10° 17:58:16 10° 23° (NNE) 2,454 4.7 -10.9°
Sets 18:00:44 0° 23° (NNE) 3,396 5.5 -11.3°
